Regional Weather Roundup
Issued by NWS

Home | Current Version | Previous Version | Graphics & Text | Print | Product List | Glossary On
Versions: 1 2 3 4 5 6 7 8 9 10 11 12 13 14 15 16 17 18 19 20 21 22 23 24 25 26 27 28 29 30 31 32 33 34 35 36 37 38 39 40 41 42 43 44 45 46 47 48 49 50
000
ASUS43 KLMK 270502
RWRKY
KENTUCKY REGIONAL WEATHER ROUNDUP
NATIONAL WEATHER SERVICE LOUISVILLE KY
1200 AM EST THU NOV 27 2014

NOTE "FAIR" INDICATES FEW OR NO CLOUDS BELOW 12,000 FEET
WITH NO SIGNIFICANT WEATHER AND/OR OBSTRUCTIONS TO VISIBILITY.

KYZ001>023-026-027-061>063-070>075-270600-
WESTERN AND SOUTH CENTRAL KENTUCKY

CITY           SKY/WX    TMP DP  RH WIND       PRES   REMARKS
PADUCAH        CLOUDY    37  35  92 W10       30.11R FOG     WCI  30
HENDERSON      CLOUDY    34  30  86 N3        30.09R
OWENSBORO      LGT SNOW  34  33  96 MISG      30.07R FOG
HOPKINSVILLE   CLOUDY    38  36  94 W13       30.07R WCI  30
BOWLING GREEN  MIX PCPN  37  34  89 CALM      30.05R
GLASGOW        NOT AVBL
$$

KYZ024-025-028>034-038-045-046-053-270600-
NORTH CENTRAL KENTUCKY

CITY           SKY/WX    TMP DP  RH WIND       PRES   REMARKS
LOUISVILLE/SDF CLOUDY    37  29  72 N9        30.04R WCI  30
LOUISVILLE/LOU CLOUDY    36  29  75 N5        30.04S WCI  32
FORT KNOX      FLURRIES  36  30  79 NW3       30.02R
$$

KYZ035>037-039>044-047>052-055>060-089>105-270600-
NORTHEAST KENTUCKY

CITY           SKY/WX    TMP DP  RH WIND       PRES   REMARKS
LEXINGTON      CLOUDY    33  28  81 NE8       30.02F WCI  26
COVINGTON      CLOUDY    30  22  72 N5        30.06R WCI  25
FRANKFORT      MOCLDY    35  27  72 NE5       30.02F WCI  31
$$

KYZ054-064>069-076>088-106>120-270600-
SOUTHEAST KENTUCKY

CITY           SKY/WX    TMP DP  RH WIND       PRES   REMARKS
JACKSON        CLOUDY    37  28  70 CALM      30.00S
LONDON         LGT RAIN  38  31  76 NW6       30.01F WCI  33
SOMERSET       NOT AVBL
MIDDLESBORO    NOT AVBL
MONTICELLO     CLOUDY    37  35  92 CALM      30.04F
$$




USA.gov is the U.S. government's official web portal to all federal, state and local government web resources and services.